ICEYE-X7 (46496 NORAD) Tracking and Keplerian Element Data

This shows tracking and keplerian element data for the satellite.

Feedback or suggestion? Click here.




ElementValue
Catalog46496
NameICEYE-X7
Epoch Orbit889
Epoch Day331.86992067
Epoch Year2020
RAAN264.7768
Inclination97.6739
Eccentricity0.0018176
Argument of Perigee46.8543
Mean Anonmoly313.4204
Mean Motion15.02921008
Decay Rate6.93E-06
L11 46496U 20068L 20331.86992067 .00000693 00000-0 56035-4 0 9992
L22 46496 97.6739 264.7768 0018176 46.8543 313.4204 15.02921008 8895

Live tracking and technical data element details for ICEYE-X7 (NORAD 46496). ICEYE-X7 can be tracked NOW for your location showing map with azimuth and elevation plus other details from your city location.

Track the satellite on the map from your city or location and see movement details for azimuth, elevation, latitude, longitude, range, height, and movement on the map or in text.







IsCatalogInMostPopularTable: catalog: 46496, numindb: 17
Update: records affected: 1



GetName: 46496 ICEYE-X7

Hit Count: updated at: Fri, 27 Nov 2020 14:53:58 GMT